Regional Weather Roundup
Issued by NWS Little Rock, AR

Home | Current Version | Previous Version | Graphics & Text | Print | Product List | Glossary On
Versions: 1 2 3 4 5 6 7 8 9 10 11 12 13 14 15 16 17 18 19 20 21 22 23 24 25 26 27
000
ASUS44 KLZK 301205
RWRLZK

WEATHER ROUNDUP FOR ARKANSAS
NATIONAL WEATHER SERVICE LITTLE ROCK AR
700 AM CDT MON MAY 30 2016

NOTE: "FAIR" INDICATES FEW OR NO CLOUDS BELOW 12,000 FEET WITH NO
SIGNIFICANT WEATHER AND/OR OBSTRUCTIONS TO VISIBILITY.

ARZ001-003-010-029-301300-
NORTHWEST ARKANSAS

CITY           SKY/WX    TMP DP  RH WIND       PRES   REMARKS
FAYETTEVILLE   CLOUDY    61  61 100 CALM      30.09R
6HR MIN TEMP:  59; 6HR MAX TEMP:  61;

FORT SMITH     CLOUDY    68  65  90 E3        30.04S
6HR MIN TEMP:  66; 6HR MAX TEMP:  72;

HARRISON       CLOUDY    63  62  97 CALM      30.09F
6HR MIN TEMP:  60; 6HR MAX TEMP:  66;

BENTONVILLE    MOCLDY    64  61  88 CALM      30.08S
6HR MIN TEMP:  63; 6HR MAX TEMP:  66;

ROGERS           N/A     66  65  96 CALM      30.09S
6HR MIN TEMP:  63; 6HR MAX TEMP:  66;

SILOAM SPGS    CLOUDY    64  55  72 CALM      30.09R
6HR MIN TEMP:  63; 6HR MAX TEMP:  64;

HIGHFILL       CLOUDY    64  63  96 CALM      30.08R
6HR MIN TEMP:  60; 6HR MAX TEMP:  65;

SPRINGDALE     PTSUNNY   64  63  94 SE3       30.10R
$$

ARZ004-005-016-301300-
NORTH CENTRAL ARKANSAS

CITY           SKY/WX    TMP DP  RH WIND       PRES   REMARKS
BATESVILLE     SUNNY     66  64  94 CALM      30.08R
6HR MIN TEMP:  64; 6HR MAX TEMP:  70;

FLIPPIN        PTSUNNY  N/A N/A N/A CALM      30.06R
MTN HOME       MOSUNNY   66  64  93 CALM      30.07R
6HR MIN TEMP:  62; 6HR MAX TEMP:  67;

$$

ARZ040-041-301300-
WEST CENTRAL ARKANSAS

CITY           SKY/WX    TMP DP  RH WIND       PRES   REMARKS
MENA           CLOUDY    64  64 100 CALM      30.07R
MOUNT IDA      CLOUDY    63  62  97 CALM      30.04R FOG
6HR MIN TEMP:  62; 6HR MAX TEMP:  67;

$$

ARZ009-017-025-026-028-301300-
NORTHEAST ARKANSAS

CITY           SKY/WX    TMP DP  RH WIND       PRES   REMARKS
CORNING          N/A     70  70 100 CALM      30.08R
JONESBORO      SUNNY     70  68  93 CALM      30.07R
6HR MIN TEMP:  67; 6HR MAX TEMP:  72;

NEWPORT        SUNNY     71  71 100 NE3       30.08R FOG
6HR MIN TEMP:  69; 6HR MAX TEMP:  73;

WALNUT RIDGE   SUNNY     70  64  83 NW5       30.08R
6HR MIN TEMP:  66; 6HR MAX TEMP:  73;

BLYTHEVILLE    SUNNY     71  69  93 CALM      30.08R
6HR MIN TEMP:  69; 6HR MAX TEMP:  73;

$$

ARZ022-023-033-042-044-301300-
CENTRAL ARKANSAS

CITY           SKY/WX    TMP DP  RH WIND       PRES   REMARKS
LITTLE ROCK    CLOUDY    67  63  87 CALM      30.08R
6HR MIN TEMP:  64; 6HR MAX TEMP:  68;

N LITTLE ROCK    N/A     67  62  81 N3        30.05R
6HR MIN TEMP:  65; 6HR MAX TEMP:  69;

JACKSONVILLE   CLOUDY    65  65  99 CALM      30.07R
6HR MIN TEMP:  63; 6HR MAX TEMP:  67;

SEARCY         MOSUNNY   64  64 100 CALM      30.09R
6HR MIN TEMP:  63; 6HR MAX TEMP:  68;

HOT SPRINGS    CLOUDY    65  63  93 E6        30.07R
6HR MIN TEMP:  64; 6HR MAX TEMP:  67;

RUSSELLVILLE   CLOUDY    64  63  96 CALM      30.07R
6HR MIN TEMP:  61; 6HR MAX TEMP:  70;

CLINTON        FAIR      61  61 100 CALM      30.09R FOG
$$

ARZ036-301300-
EAST ARKANSAS

CITY           SKY/WX    TMP DP  RH WIND       PRES   REMARKS
WEST MEMPHIS   SUNNY     72  70  93 CALM      30.06R
6HR MIN TEMP:  67; 6HR MAX TEMP:  72;

$$

ARZ050-053-066-070-073-301300-
SOUTHWEST ARKANSAS

CITY           SKY/WX    TMP DP  RH WIND       PRES   REMARKS
ARKADELPHIA    FAIR      67  67 100 CALM      30.07R
6HR MIN TEMP:  65; 6HR MAX TEMP:  68;

CAMDEN         CLOUDY    66  61  82 NE3       30.06R
TEXARKANA      CLOUDY    67  66  97 CALM      30.04R FOG
6HR MIN TEMP:  66; 6HR MAX TEMP:  69;

EL DORADO      CLOUDY    66  64  93 CALM      30.06R
6HR MIN TEMP:  64; 6HR MAX TEMP:  69;

DE QUEEN       CLOUDY    66  66 100 CALM      30.03R
6HR MIN TEMP:  65; 6HR MAX TEMP:  66;

$$

ARZ056-057-069-301300-
SOUTHEAST ARKANSAS

CITY           SKY/WX    TMP DP  RH WIND       PRES   REMARKS
PINE BLUFF     CLOUDY    67  65  93 CALM      30.07R
6HR MIN TEMP:  64; 6HR MAX TEMP:  67;

STUTTGART      CLOUDY    70  63  78 E3        30.08R
6HR MIN TEMP:  66; 6HR MAX TEMP:  70;

MONTICELLO     SUNNY     66  63  90 CALM      30.07R
6HR MIN TEMP:  64; 6HR MAX TEMP:  67;


$$






USA.gov is the U.S. government's official web portal to all federal, state and local government web resources and services.